Powrót do katalogu

FENGYUN 1C DEB

AktywnyPO
NORAD 29895·DEBRIS·🇨🇳 China

Wystrzelony May 10, 1999 z Taiyuan Satellite Launch Center

Loading…

Następne Przeloty (najbliższe 24 godziny)

TLE

ŚwieżeSource: Space-Track

Epoka: Sep 14, 2026, 09:00 UTC

1 29895U 99025GR  26257.37503310  .00002607  00000-0  98072-3 0  9996
2 29895  99.9080  38.5472 0293590 310.5849  72.3805 14.11457982994095

Śledź FENGYUN 1C DEB w czasie rzeczywistym z AllMySat

Download on the App Store